Regional Weather Roundup
Issued by NWS

Home | Current Version | Previous Version | Text Only | Print | Product List | Glossary On
Versions: 1 2 3 4 5 6 7 8 9 10 11 12 13 14 15 16 17 18 19 20 21 22 23 24 25 26 27 28 29 30 31 32 33 34 35 36 37 38 39 40 41 42 43 44 45 46 47 48 49 50
000
ASUS43 KDMX 200001
RWRIA

WEATHER ROUNDUP FOR IOWA
NATIONAL WEATHER SERVICE DES MOINES IA
700 PM CDT SAT MAY 19 2018

NOTE: "FAIR" INDICATES FEW OR NO CLOUDS BELOW 12,000 FEET WITH NO
SIGNIFICANT WEATHER AND/OR OBSTRUCTIONS TO VISIBILITY.

* - THESE STATIONS ARE NOT NWS STATIONS...THUS NOT UNDER NWS
QUALITY CONTROL.  THEY ALSO DO NOT REPORT WEATHER SUCH
AS PRECIPITATION OR FOG.

IAZ001>003-012>014-020>022-031>034-043>046-200100-
   NORTHWEST IOWA

CITY           SKY/WX    TMP DP  RH WIND       PRES   REMARKS
CARROLL *      CLOUDY   N/A N/A N/A N15       29.94R
CHEROKEE *     CLOUDY    57  55  92 N7G18     29.96R
DENISON *      CLOUDY    63  57  82 N12       29.98R
LE MARS *      CLOUDY    59  54  82 N10       29.98R
ORANGE CITY *  LGT RAIN  57  54  88 NE3       29.98R
SHELDON *      CLOUDY    61  50  67 NE16      29.97S
SIOUX CITY     CLOUDY    59  53  80 N9        29.99R
6HR MIN TEMP:  55; 6HR MAX TEMP:  59; 6HR PCP:  0.15;

SPENCER        CLOUDY    62  49  62 N18       29.97F
6HR MIN TEMP:  61; 6HR MAX TEMP:  67;

STORM LAKE *   CLOUDY    57  54  88 NE17G23   29.96R
$$

IAZ055>058-069>071-079>083-090>094-200100-
   SOUTHWEST IOWA

CITY           SKY/WX    TMP DP  RH WIND       PRES   REMARKS
ATLANTIC *     CLOUDY    64  59  82 N10       29.95R
AUDUBON *      PTSUNNY   63  57  82 N8        29.96R
CLARINDA *     MOSUNNY   73  59  60 N13       29.94R
COUNCIL BLFS * CLOUDY    63  61  94 N8        29.97R
CRESTON *      PTSUNNY   68  61  77 N10       29.95R
HARLAN  *      CLOUDY    63  59  88 N9        29.99R
LAMONI         CLOUDY    74  65  73 N10       29.89R
6HR MIN TEMP:  74; 6HR MAX TEMP:  80;

RED OAK *      CLOUDY    70  59  68 N12       29.94R
SHENANDOAH *   SUNNY     70  57  64 N14       29.94S
$$

IAZ047>049-059>061-072>074-084-200100-
   CENTRAL IOWA

CITY           SKY/WX    TMP DP  RH WIND       PRES   REMARKS
AMES           MOSUNNY   67  59  75 N15       29.90S
6HR MIN TEMP:  66; 6HR MAX TEMP:  82; 6HR PCP:  0.27;

ANKENY *       CLOUDY    68  61  77 N10       29.91R
BOONE *        MOSUNNY   66  59  77 N13G22    29.91R
CHARITON *     CLOUDY    72  68  88 N8G14     29.89R
DES MOINES     MOSUNNY   72  63  73 N13       29.89R
6HR MIN TEMP:  66; 6HR MAX TEMP:  81; 6HR PCP:  0.28;

GRINNELL*      CLOUDY    72  61  68 NE8       29.90S
KNOXVILLE *    PTSUNNY   72  63  73 NE9       29.89R
MARSHALLTOWN   CLOUDY    68  66  93 N8        29.90R
6HR MIN TEMP:  65; 6HR MAX TEMP:  83; 6HR PCP:  0.69;

NEWTON *       CLOUDY    70  63  78 NE9       29.90R
PELLA *        CLOUDY    74  63  68 NE5       29.90R
PERRY *        CLOUDY    65  59  80 N14G21    29.91R
$$

IAZ004>006-015-016-023>025-035-036-200100-
   NORTH CENTRAL IOWA

CITY           SKY/WX    TMP DP  RH WIND       PRES   REMARKS
ALGONA *       CLOUDY    63  54  72 N20       29.96F
CLARION *      CLOUDY    68  52  56 N16       29.93F
ESTHERVILLE    CLOUDY    59  50  72 N15       29.99S
6HR MIN TEMP:  59; 6HR MAX TEMP:  62;

FORT DODGE *   CLOUDY    62  56  80 N6        29.94S
MASON CITY     CLOUDY    65  57  75 N16       29.96R
6HR MIN TEMP:  65; 6HR MAX TEMP:  74;

FOREST CITY *  PTSUNNY   63  55  77 N13       29.98R
WEBSTER CITY * CLOUDY    64  57  77 N14       29.90F
IOWA FALLS *   CLOUDY    68  63  84 NW7       29.93S
$$

IAZ007>011-017>019-026>030-037>042-050>054-066-200100-
   NORTHEAST IOWA

CITY           SKY/WX    TMP DP  RH WIND       PRES   REMARKS
CEDAR RAPIDS   FAIR      73  67  81 W15       29.87R
6HR MIN TEMP:  71; 6HR MAX TEMP:  82; 6HR PCP:  0.01;

CHARLES CITY * FAIR      72  57  60 N10       29.90S
CLINTON *      CLOUDY    77  64  64 E8        29.87R
DECORAH *      FAIR      70  61  73 N12       29.89R
DUBUQUE        FAIR      74  62  66 E6        29.88R
6HR MIN TEMP:  74; 6HR MAX TEMP:  80;

MONTICELLO *   PTSUNNY   75  59  57 SE6       29.86R
OELWEIN *      LGT RAIN  66  63  88 SW7G13    29.91R
WATERLOO       CLOUDY    65  64  97 NW7       29.87F
6HR MIN TEMP:  65; 6HR MAX TEMP:  82; 6HR PCP: TRACE;

$$

IAZ064-065-067-068-078-200100-
   EAST CENTRAL IOWA

CITY           SKY/WX    TMP DP  RH WIND       PRES   REMARKS
DAVENPORT      PTSUNNY   78  58  49 SE6       29.87S
6HR MIN TEMP:  78; 6HR MAX TEMP:  82;

IOWA CITY      FAIR      75  67  76 W3        29.88R
6HR MIN TEMP:  73; 6HR MAX TEMP:  82; 6HR PCP:  0.02;

MUSCATINE *    FAIR      79  61  53 S8        29.86R HX  80
QUAD CITIES    FAIR      80  60  50 SW3       29.85R HX  81
6HR MIN TEMP:  77; 6HR MAX TEMP:  84;

$$

IAZ062-063-075>077-085>089-095>099-200100-
   SOUTHEAST IOWA

CITY           SKY/WX    TMP DP  RH WIND       PRES   REMARKS
BURLINGTON     CLOUDY    77  65  66 S7        29.86F
6HR MIN TEMP:  74; 6HR MAX TEMP:  79;

FAIRFIELD *    CLOUDY    75  66  73 NE6       29.87R
FORT MADISON * MOSUNNY   79  68  69 S3        29.88R HX  81
KEOKUK *       MOSUNNY   77  66  69 S7        29.87R
OSKALOOSA *    FAIR      73  64  73 CALM      29.88R
CENTERVILLE *    N/A     77  63  61 CALM      29.90R
OTTUMWA        CLOUDY    77  64  64 E5        29.87R
6HR MIN TEMP:  69; 6HR MAX TEMP:  80; 6HR PCP: TRACE;

WASHINGTON *   PTSUNNY   79  64  61 SW5       29.88R HX  81
$$

ABBREVIATIONS USED IN REMARKS
   TC - TEMPERATURES IN CELSIUS
  WCI - WIND CHILL INDEX
   HX - HEAT INDEX
  VSB - VISIBILITY
$$





USA.gov is the U.S. government's official web portal to all federal, state and local government web resources and services.